Tracking 25711 objects as of 23-May-2022
HD Live streaming from Space Station
objects crossing your sky now

COSMOS 1275 DEB

Track COSMOS 1275 DEB now!
10-day predictions


NORAD ID: 20505
Int'l Code: 1981-053MS
Perigee: 777.3 km
Apogee: 802.4 km
Inclination: 83.2 °
Period: 100.5 minutes
Semi major axis: 7160 km
RCS: 0.0047 m2 (small)
Launch date: June 4, 1981
Source: Commonwealth of Independent States (former USSR) (CIS)
Launch site: PLESETSK MISSILE AND SPACE COMPLEX (PKMTR)

Note: This is SATELLITE DEBRIS
aabbcc
Your satellite tracking list
Your tracking list is empty




NASA's NSSDC Master Catalog

Two Line Element Set (TLE):
1 20505U 81053MM  22141.87167806  .00004069  00000-0  14871-2 0  9994
2 20505  83.1615   7.8651 0017482 354.4188   5.6803 14.32704461460969
Source of the keplerian elements: AFSPC